www.pogodaiklimat.ru

Погода и климат >> Архив погоды >> Мьянма >> Кяокпю


ПОГОДА в Кяокпю

  • Прогноз погоды в Кяокпю
  • Монитор погоды в Кяокпю

АРХИВ ПОГОДЫ в Кяокпю

Время (UTC), дата Ветер
(напр.,м/с)
 
Видим.   Явления Облачность Т
(С)
Тd
(С)
f
(%)
Тe
(С)
Тes
(С)
Комфортность P
(гПа)
Po
(гПа)
Тmin
(С)
Tmax
(С)
R
(мм)
R24
(мм)
S
(см)
00 11.06 штиль 0 6000 м 8/6 300 м
[Cb cap Ac trans]
+28.2 +26.8 92 +44 +44 опасность
перегрева
1003.2 1002.6 +26.0
03 11.06 ЮЗ 4 8000 м 8/8 300 м
[Cb cap]
+31.3 +26.7 77 +49 +50 опасность
перегрева
1004.4 1003.8
06 11.06 ЮЗ 6 8000 м 10/8 300 м
[Cb cap Ac As]
+30.8 +26.7 79 +48 +48 опасность
перегрева
1004.2 1003.6
09 11.06 ЮЗ 2 7000 м гроза, ливневой дождь 10/8 200 м
[Cb cap As op]
+29.4 +27.4 89 +47 +48 опасность
перегрева
1002.3 1001.7
12 11.06 штиль 0 6000 м в посл. час гроза 10/8 300 м
[Cb cap Ac As]
+28.2 +26.8 92 +44 +44 опасность
перегрева
1001.7 1001.1 +32.3 17
03 12.06 СЗ 3 8000 м 6/5 300 м
[Cu Sc Ac trans]
+31.0 +26.7 78 +48 +53 опасность
перегрева
1003.5 1002.9
06 12.06 СЗ 3 8000 м 9/5 300 м
[Cu Sc Ac As]
+31.6 +26.5 74 +48 +52 опасность
перегрева
1002.8 1002.2
12 12.06 СЗ 5 5000 м 10/8 200 м
[Cb cap Ac As]
+30.3 +25.3 75 +44 +44 опасность
перегрева
1000.3 999.7 +32.5
00 13.06 ЮЗ 5 5000 м сильн. дождь {гроза} 10/8 200 м
[Cb cap As op]
+26.2 +26.2 100 +39 +39 очень
душно
1002.0 1001.4 +24.5 193
03 13.06 ЮЗ 3 6000 м слаб. дождь 10/8 200 м
[Cb cap As op]
+25.2 +25.2 100 +36 +37 очень
душно
1004.2 1003.6
06 13.06 ЮЗ 7 7000 м в посл. час дождь 10/8 200 м
[Cb cap As op]
+28.0 +25.0 84 +40 +41 очень
душно
1003.8 1003.2
09 13.06 ЮЗ 2 7000 м слаб. дождь 10/8 200 м
[Cb cap Ac As]
+27.0 +24.8 88 +39 +39 очень
душно
1001.8 1001.2
12 13.06 ЮЗ 2 6000 м в посл. час дождь 10/8 200 м
[Frnb Ac inh]
+28.0 +25.0 84 +40 +40 очень
душно
1002.3 1001.7 +30.5 33
00 14.06 штиль 0 5000 м 10/8 200 м
[Cb cap Ac As]
+26.8 +24.6 88 +38 +38 очень
душно
1002.8 1002.2 +26.0
03 14.06 СЗ 5 3000 м сильн. дождь 10/8 200 м
[Cb cap As op]
+25.5 +25.3 99 +37 +37 очень
душно
1004.5 1003.9
06 14.06 СЗ 5 3000 м гроза, ливневой дождь 10/8 200 м
[Cb cap As op]
+24.8 +24.8 100 +35 +35 очень
душно
1004.0 1003.4
09 14.06 ЮЗ 7 4000 м дождь {гроза} 10/8 200 м
[Cb cap As op]
+24.7 +24.5 99 +35 +35 очень
душно
1002.4 1001.8
12 14.06 ЮЗ 3 2000 м слаб. ливневой дождь, в посл. час гроза 10/8 200 м
[Cb cap As op]
+25.3 +25.0 98 +36 +36 очень
душно
1001.7 1001.1 +27.2 189
00 15.06 штиль 0 5000 м дождь {гроза} 10/8 200 м
[Cb cap As op]
+24.6 +24.6 100 +34 +34 очень
душно
1005.1 1004.5 +23.5 111
03 15.06 ЮЗ 3 7000 м в посл. час дождь 10/8 200 м
[Cb cap Ac As]
+26.0 +25.8 99 +38 +39 очень
душно
1006.1 1005.5
06 15.06 ЮЗ 3 8000 м 10/8 300 м
[Cb cap Ac As]
+30.3 +26.6 81 +47 +48 опасность
перегрева
1005.6 1005.0
09 15.06 ЮЗ 4 7000 м слаб. морось 10/8 300 м
[Cb cap As op]
+28.0 +26.8 93 +44 +44 опасность
перегрева
1004.1 1003.5
12 15.06 ЮЗ 9 4000 м слаб. дождь {морось} 10/8 200 м
[Cb cap As op]
+27.8 +26.8 94 +43 +43 опасность
перегрева
1004.4 1003.8 +30.5 6
00 16.06 штиль 0 5000 м в посл. час дождь 8/5 300 м
[Cu Sc Ac As]
+26.3 +24.6 90 +37 +37 очень
душно
1003.0 1002.4 +24.5 16
03 16.06 ЮЗ 3 8000 м 9/6 300 м
[Cb cap Ac As]
+28.5 +27.4 94 +46 +48 опасность
перегрева
1004.8 1004.2
06 16.06 СЗ 5 8000 м 9/6 300 м
[Cb cap Ac As]
+30.5 +26.7 80 +47 +49 опасность
перегрева
1004.5 1003.9
09 16.06 СЗ 5 7000 м 10/8 300 м
[Cb cap Ac As]
+29.0 +25.9 83 +43 +44 опасность
перегрева
1002.6 1002.0
12 16.06 штиль 0 4000 м слаб. дождь 10/8 200 м
[Cb cap As op]
+27.3 +25.6 90 +40 +40 очень
душно
1002.3 1001.7 +30.8 223
00 17.06 штиль 0 6000 м 10/8 300 м
[Cb cap Ac As]
+27.0 +26.3 96 +41 +41 опасность
перегрева
1002.8 1002.2 +25.5 2
03 17.06 штиль 0 8000 м 9/6 300 м
[Cb cap Ac As]
+29.4 +25.9 81 +44 +47 опасность
перегрева
1005.0 1004.4
06 17.06 ЮЗ 3 8000 м 10/8 300 м
[Cb cap Ac As]
+30.0 +26.6 82 +46 +47 опасность
перегрева
1004.6 1004.0
09 17.06 ЮЗ 2 8000 м 9/6 300 м
[Cb cap Ac As]
+30.8 +28.2 86 +51 +53 опасность
перегрева
1002.4 1001.8
12 17.06 ЮЗ 4 6000 м 9/6 300 м
[Cb cap Ac As]
+29.8 +25.9 80 +45 +45 опасность
перегрева
1002.6 1002.0 +31.2

 

Местоположение метеостанции Кяокпю (Мьянма): широта 19.42 долгота 93.55 высота над уровнем моря 5 м.

В архиве по умолчанию представлена погода в Кяокпю за последнюю неделю. Архивные данные за месяц целиком и за предыдущие месяцы, начиная с января 2011 года, Вы можете получить, выбрав интересующий диапазон дат из раскрывающегося списка и нажав кнопку "Ввод!".


*Определитесь, кто Вы:
робот инопланетянин человек

Внимание! Время в таблицах - всемирное. Для получения местного времени необходимо прибавить поправку, которая равна 6.5 ч.

Смотрите также архив погоды в соседних городах и на ближайших метеорологических станциях:

Погода в Манаунге (Мьянма) (66 км)
Погода в Ситтво (Мьянма) (106 км)
Погода в Тандве (Мьянма) (135 км)
Погода в Минбу (Мьянма) (162 км)
Погода в Магуэе (Мьянма) (168 км)
Погода в Кяуктаве (Мьянма) (186 км)
Погода в Проме (Мьянма) (189 км)
Погода в Текнафе (Бангладеш) (207 км)
Погода в Чау (Мьянма) (210 км)
Погода в Миндате (Мьянма) (222 км)

Пояснения к столбцам:

Ветер - указаны скорость ветра в м/с - средняя за 10 мин, порывы в срок и между сроками (в фигурных скобках) и направление, откуда дует ветер: С - северный, СВ - северо-восточный, В - восточный, ЮВ - юго-восточный, Ю - южный, ЮЗ - юго-западный, З - западный, СЗ - северо-западный.
Видимость - горизонтальная дальность видимости в метрах или километрах. При видимости от 1 до 10 км при отсутствии осадков обычно наблюдается дымка, при ухудшении видимости до 1 км и менее - туман. В сухую погоду видимость может ухудшаться дымом, пылью или мглою.
Явления - указаны атмосферные явления, наблюдавшиеся в срок или в последний час перед сроком; фигурными скобками обозначены явления, наблюдавшиеся между сроками (за 1-3 часа до срока); квадратными скобками обозначены град или гололедные отложения с указанием их диаметра в мм.
Облачность - указаны через наклонную черту общая и нижняя облачность в баллах и высота нижней границы облаков в метрах; квадратными скобками обозначены формы облаков: Ci - перистые, Cs - перисто-слоистые, Cc - перисто-кучевые, Ac - высококучевые, As - высокослоистые, Sc - слоисто-кучевые, Ns - слоисто-дождевые, Cu - кучевые, Cb - кучево-дождевые. Подробнее классификацию облаков см. в Атласе облаков (PDF).
T - Температура воздуха - температура, измеренная на высоте 2 м над землей.
Td - Температура точки росы - температура, при понижении до которой содержащийся в воздухе водяной пар достигнет насыщения.
f - Относительная влажность воздуха - влажноcть воздуха, измеренная на высоте 2 м над землей.
Te - Эффективная температура - температура, которую ощущает одетый по сезону человек в тени. Характеристика душности погоды. При расчете учитывается влияние влажности воздуха и скорости ветра на теплоощущения человека.
Tes - Эффективная температура на солнце - температура, которую ощущает человек, с поправкой на солнечный нагрев. Характеристика знойности погоды. Зависит от высоты солнца над горизонтом, облачности и скорости ветра. Ночью, в пасмурную погоду, а также при ветре 12 м/с и более поправка равна нулю.
P - Атмосферное давление - приведенное к уровню моря атмосферное давление.
Po - Атмосферное давление - измеренное на уровне метеостанции атмосферное давление.
Tmin - Минимальная температура - минимум температуры воздуха на высоте 2 м над землей.
Tmax - Максимальная температура - максимум температуры воздуха на высоте 2 м над землей.
R - Количество осадков - Количество выпавших осадков за период времени, мм. При наведении курсора мыши на число - период времени, за который выпало указанное количество осадков.
R24 - Количество осадков - Количество выпавших осадков за 24 часа, мм.
S - Снежный покров - Высота снежного покрова, см. При наведении курсора мыши на число - состояние снежного покрова и степень покрытия местности в баллах.